OV1-13 R/B, 3212

Orbit data source: Space-Track

OV1-13 R/B, 3212 is space debris originally from a launch on Sat, 06 Apr 1968 UTC launched from the Air Force Western Test Range (AFWTR). Debris objects in space refer to the collection of defunct objects orbiting the Earth. Examples of debris include non-operational satellites, rocket bodies, and fragments generated from explosions, collisions, or faulty payload assembly.

Loading next visibility...
Identifier
3212, 1968-026D
Orbit
Active
Country
Flag of USUS
Related business
Manufacturer
UTC
Mission
Spacecraft
Bus & Motor
FW4, Unknown motor
Mass
125 kg wet, 125 kg dry
Launch date (UTC)
1968-04-06 (57 years ago)
Launch vehicle
Unknown
Launch site
Air Force Western Test Range (AFWTR)
Object type
Payload
Rocket body
Debris
Shape & HBR
Cyl, 1.0 m
Radar Cross Section
1.363 m², Large (>1 m²)

Expand to show TLE details & history
Last TLE update: 20 hours ago

TLE from 20 hours ago
0 OV1-13 R/B
1 03212U 68026D   25257.81473339 -.00000009  00000-0 -21341-4 0  9995
2 03212  99.9952 322.9596 3786457  79.4778 320.2043  7.28552837300296
Epoch: 2025-09-14T19:33Z
TLE epoch observation values (Epoch: 2025-09-14T19:33:12.964Z)
Latitude
Longitude
35.62725°
Altitude
2,623.548 km
Speed
7.288 km/s
True Right ascension
21h 31m 50s
True Declination
0° 00' 00"
Sunlit
Object was in full shadow at epoch
Visualization orbit readout
Latitude
Unknown
Longitude
Unknown
Altitude
Unknown
Speed
Unknown
Apparent Right ascension
Unknown
Apparent Declination
Unknown
Sunlit
N/A
Visualization observer readout
Local Sidereal Time
08:22:22
Azimuth
Unknown
Elevation
Unknown
Doppler factor
Unknown
Orbital elements
Apogee altitude
9,114.567 km
Perigee altitude
604.41 km
Semi-major axis
11,237.626 km
Eccentricity
0.37865
Inclination
99.9952°
RAAN
322.9596°
Arg. of periapsis
79.4778°
True anomaly
280.62835°
Mean anomaly
320.2043°
Eccentric anomaly
301.75759°
Mean motion
1.82193 °/min
Orbital period
197.59 mins
BSTAR
-0.000021341
Loading maneuver chart data...
Computing Atmospheric mass density...
Loading historical data...
Loading historical data...
Loading historical data...
Loading historical data...
Loading historical data...
Loading historical data...
Loading historical data...
Other satellites on launch #26 in the year 1968 (1968-04-06 UTC)

Documentation

Showing up to 5 results
|